Location: Putah Creek Observatory
(38.7021°N, 122.3865°W)
Time: 16:48:58
(UTC-08:00)

Daily predictions for brighter satellites

Satellite Brightness Start Highest point End
(mag) Time Altitude Azimuth Time Altitude Azimuth Time Altitude Azimuth
AQUARIUS 4.1 17:34:47 10° SSE 17:39:16 80° ENE 17:43:47 10° N
CZ-2C R/B 2.5 17:35:18 10° SSE 17:40:23 88° W 17:45:20 10° NNW
Lacrosse 5 3.4 17:35:55 10° W 17:40:24 30° NW 17:44:52 10° NNE
Cosmos 1763 Rocket 3.7 17:40:13 10° S 17:45:18 54° ESE 17:50:22 10° NNE
Cosmos 1328 Rocket 4.1 17:42:18 10° N 17:46:27 38° ENE 17:50:35 10° SSE
Cosmos 1515 Rocket 4.3 17:47:00 10° NNE 17:51:00 32° ENE 17:54:59 10° SE
SKYMED 2 4.0 17:48:23 10° NNE 17:52:32 42° E 17:56:39 10° S
Cosmos 1726 3.6 17:50:01 10° NNE 17:52:36 17° ENE 17:55:11 10° ESE
Cosmos 44 Rocket 4.3 17:50:08 10° S 17:54:38 32° ESE 17:59:07 10° NE
SMAP 3.5 17:50:59 10° S 17:55:37 69° WSW 18:00:16 10° NNW
SJ-6B 4.3 17:56:02 10° ESE 17:58:45 18° ENE 18:01:31 10° NNE
Cosmos 1634 Rocket 4.3 17:53:33 10° N 17:59:27 44° ENE 18:05:17 10° SSE
SPOT 3 Rocket 3.9 17:54:54 10° S 18:00:02 73° WSW 18:05:12 10° NNW
Thor Agena Rocket 3.9 17:58:06 10° N 18:03:21 70° WNW 18:08:31 10° SSW
BREEZE-M DEB (TANK) 3.2 18:01:05 10° SSW 18:03:31 27° SE 18:04:56 15° E
COSMOS 2441 4.4 17:58:44 10° SSE 18:03:36 86° ENE 18:08:29 10° NNW
Cosmos 2151 3.9 18:00:58 10° SSE 18:04:31 27° E 18:08:04 10° NNE
Cosmos 2150 Rocket 4.3 17:59:35 10° NNW 18:04:48 71° WSW 18:09:54 10° S
Cosmos 1500 Rocket 3.8 18:00:46 10° SSE 18:04:52 45° E 18:09:01 10° NNE
Meteor 1-28 Rocket 3.8 18:01:33 10° NNE 18:04:59 35° E 18:08:24 10° SSE
Cosmos 1151 Rocket 3.7 18:05:04 10° NNE 18:08:54 32° ENE 18:12:45 10° SE
OTV 4 0.4 18:06:32 10° W 18:09:30 79° S 18:11:32 18° E
Milstar 3 4.0 18:04:32 10° WSW 18:10:38 35° S 18:17:06 10° ESE
Cosmos 2333 4.2 18:05:58 10° SSW 18:11:35 89° ESE 18:17:13 10° NNE
Cosmos 540 Rocket 4.2 18:07:07 10° SSE 18:11:38 31° E 18:15:49 12° NE
IDEFIX/ARIANE 42P 3.9 18:07:12 10° S 18:12:08 43° W 18:17:07 10° NNW
OAO 3 Rocket 4.0 18:08:58 10° W 18:13:40 47° S 18:18:16 10° ESE
Cosmos 1844 Rocket 2.6 18:09:26 10° NNW 18:15:05 66° ENE 18:20:41 10° SSE
Atlas Centaur 2 3.6 18:12:26 10° WSW 18:16:22 23° SSW 18:19:43 10° SE
Cosmos 1125 Rocket 4.0 18:12:27 10° N 18:17:14 35° ENE 18:21:57 10° SE
Resurs 01 Rocket 3.3 18:23:00 16° NE 18:23:00 16° NE 18:24:42 10° NNE
USA 215 3.2 18:16:38 10° ESE 18:23:08 71° NE 18:29:41 10° NW
Cosmos 1980 4.0 18:18:24 10° S 18:23:46 46° ESE 18:28:28 14° NE
Cosmos 990 Rocket 4.3 18:19:17 10° NNW 18:24:31 70° WSW 18:29:44 10° S
Cosmos 2360 Rocket 4.0 18:20:09 10° WSW 18:24:56 28° WNW 18:29:45 10° N
CZ-3A R/B 3.6 18:23:01 10° NW 18:27:31 30° NNE 18:29:46 21° ENE
Spot 2 Rocket 4.4 18:25:16 10° ESE 18:29:16 24° ENE 18:33:17 10° NNE
Cosmos 1340 Rocket 3.7 18:26:06 10° SSE 18:29:26 26° E 18:29:45 26° E
Cosmos 2333 Rocket 2.2 18:26:16 10° S 18:31:51 65° ESE 18:36:58 13° NNE
Cosmos 841 Rocket 4.0 18:32:08 10° SSW 18:37:20 60° WNW 18:42:34 10° N
NOSS 0 Rocket 3.9 18:31:47 10° SSW 18:37:56 69° ESE 18:43:27 13° NNE
Cosmos 2228 Rocket 4.1 18:35:03 10° NNW 18:39:18 48° W 18:43:33 10° SSW
Meteor 1-27 4.4 18:34:20 10° N 18:39:59 51° ENE 18:45:38 10° SSE
COSMO-SKYMED 1 3.3 18:36:19 10° N 18:40:33 53° WNW 18:44:45 10° SSW
Aureole 2 Rocket 3.7 18:38:33 10° SSE 18:40:43 25° SE 18:40:43 25° SE
SL-14 R/B 3.1 18:39:08 10° S 18:43:00 78° E 18:46:31 13° N
FENGYUN 3A 4.1 18:39:29 10° SE 18:44:19 36° ENE 18:49:10 10° N
Cosmos 332 Rocket 4.4 18:41:14 10° SSW 18:45:56 55° WNW 18:50:43 10° N
Cosmos 2084 3.1 18:47:32 10° SW 18:51:28 84° NW 18:52:44 41° NNE
Cosmos 2219 Rocket 2.5 18:47:25 10° SSW 18:53:01 65° WNW 18:58:28 11° NNE
Cosmos 2279 Rocket 3.9 18:47:56 10° N 18:54:09 71° E 19:00:21 10° SSE
Cosmos 2278 Rocket 2.1 18:50:52 10° NNW 18:56:32 64° ENE 19:02:08 10° SSE
METEOR-M 4.1 18:56:01 10° SSE 19:01:22 83° WSW 19:06:45 10° NNW
Lacrosse 5 rocket 3.2 19:01:17 10° NNW 19:02:29 16° N 19:02:29 16° N
Cosmos 1844 4.2 19:00:42 10° NNW 19:06:22 62° WSW 19:12:04 10° S
Cosmos 2180 Rocket 4.3 19:01:50 10° N 19:08:00 76° E 19:14:11 10° SSE
Meteor 2-10 3.9 19:03:32 10° N 19:08:37 89° E 19:13:48 10° S
ALOS 2.2 19:05:03 10° SSE 19:09:38 62° ENE 19:14:15 10° N
Abrixas rocket 4.5 19:07:42 10° W 19:10:25 23° SW 19:11:49 18° S
Hubble Space Telescope 3.2 19:08:41 10° SW 19:10:57 14° SSW 19:12:32 12° SSE
CENTAUR R/B 4.0 19:07:17 10° WSW 19:12:46 32° NW 19:18:20 12° NNE
Nadezhda 4 Rocket 4.0 19:07:33 10° SSE 19:13:36 57° E 19:16:28 31° NNE
Cosmos 1300 4.1 19:11:21 10° NNW 19:14:57 39° W 19:18:31 10° SSW
Cosmos 44 3.5 19:11:04 10° SW 19:16:21 77° WNW 19:17:58 45° NNE
Cosmos 2237 Rocket 2.5 19:15:16 10° SSW 19:20:49 64° WNW 19:24:04 25° N
SL-16 R/B 2.3 19:18:27 10° S 19:23:27 55° SE 19:23:27 55° SE
Lacrosse 5 4.3 19:23:29 10° NNW 19:24:56 11° NNW 19:25:59 10° N
Cosmos 2058 4.1 19:22:02 10° SSW 19:25:55 41° W 19:28:10 22° NNW
Cosmos 1726 4.4 19:24:46 10° NW 19:27:55 25° W 19:31:03 10° SSW
Cosmos 2297 4.3 19:27:37 10° NNW 19:31:34 42° N 19:31:34 42° N
Cosmos 1805 Rocket 4.0 19:30:12 10° SSW 19:34:35 61° W 19:34:40 61° WNW
Cosmos 372 Rocket 4.4 19:33:10 10° NNW 19:38:11 59° WSW 19:41:51 18° S
OTV 4 4.0 19:42:37 10° W 19:42:47 11° W 19:42:47 11° W
Resurs 01 Rocket 3.9 20:00:33 19° NW 20:00:33 19° NW 20:02:00 10° NNW
Cosmos 2333 Rocket 4.5 20:12:44 10° W 20:16:36 19° NW 20:19:01 15° NNW
